{"data":{"norad_id":61062,"epoch":"2026-09-21T16:48:50.409216Z","epoch_age_seconds":88370,"freshness":"FRESH","line1":"1 61062U 24164N   26264.70058344 -.00000230  00000+0  29529-5 0  9990","line2":"2 61062  53.1582  65.0744 0000576  72.0957 288.0124 15.69707947116205","mean_motion":15.69707947,"eccentricity":5.76e-5,"inclination_deg":53.1582,"raan_deg":65.0744,"arg_perigee_deg":72.0957,"mean_anomaly_deg":288.0124,"bstar":2.9529e-6,"rev_number":11620,"period_min":91.736810197853,"perigee_km":359.34452403592,"apogee_km":360.12072661676,"semimajor_km":6737.8696253263,"source":"CELESTRAK","updated_at":"2026-09-22T09:00:49.333546Z"}}